Flag for Germany Weather past 2 weeks in Barsinghausen, Lower Saxony, Germany

Now
64 °F

Scattered clouds.


Feels Like: 64 °F
Forecast: 50 / 70 °F
Wind: 7 mph from Northwest

Location: Wunstorf Airport

Current Time: Aug 27, 2014 at 1:03:19 PM

Latest Report: Aug 27, 2014 at 12:20 PM


Visibility: N/A

Pressure: 30.01 "Hg

Humidity: 68%

Dew point: 54 °F

Location of BarsinghausenLocation

Historic Weather in Barsinghausen — Graph

°F

Barsinghausen temperature yesterday

Maximum temperature yesterday: 64 °F (at 3:20 PM)
Minimum temperature yesterday: 50 °F (at 11:20 PM)
Average temperature yesterday: 57 °F

Past Weeks' High & Low Weather Summary

 TemperatureHumidityPressure
High72 °F (Aug 13, 2:20 PM)100% (Aug 25, 6:51 AM)30.04 "Hg (Aug 25, 6:51 AM)
Low45 °F (Aug 25, 5:49 AM)43% (Aug 12, 3:20 PM)29.59 "Hg (Aug 18, 6:20 AM)
Average59 °F73%29.85 "Hg
* Reported Aug 12 11:20 AM — Aug 27 11:20 AM, Barsinghausen, Weather by CustomWeather, © 2014

Note: Actual official high and low records may vary slightly from our data, if they occured in-between our weather recording intervals... More about our weather records

Advertising

Barsinghausen weather history for previous 24 hours

 ConditionsComfort  
Time TempWeatherWind HumidityBarometerVisibility
11:20 AM
Aug 27
61 °FScattered clouds.8 mph83%30.01 "HgN/A
10:20 AM55 °FFog.5 mph94%30.01 "Hg1 mi
9:57 AM55 °FFog.6 mph94%30.01 "Hg1 mi
9:20 AM54 °FScattered clouds.3 mph88%29.98 "Hg4 mi
8:20 AM52 °FPassing clouds.3 mph94%29.98 "Hg4 mi
7:45 AM48 °FPassing clouds.3 mph94%29.95 "Hg4 mi
7:20 AM48 °FFog.5 mph94%29.95 "Hg1 mi
7:01 AM48 °FFog.3 mph94%29.95 "Hg2 mi
6:20 AM48 °FFog.2 mph94%29.92 "Hg3 mi
5:20 AM46 °FFog.3 mph100%29.92 "HgN/A
4:20 AM48 °FCool.3 mph94%29.89 "HgN/A
3:20 AM48 °FCool.1 mph87%29.89 "HgN/A
2:20 AM52 °FPassing clouds.6 mph82%29.86 "HgN/A
1:20 AM50 °FPassing clouds.1 mph88%29.86 "HgN/A
12:20 AM52 °FPassing clouds.3 mph82%29.83 "HgN/A
11:20 PM
Aug 26
50 °FPassing clouds.1 mph88%29.83 "HgN/A
10:20 PM54 °FPassing clouds.No wind88%29.83 "HgN/A
9:20 PM55 °FScattered clouds.No wind77%29.80 "HgN/A
8:20 PM59 °FPartly sunny.No wind68%29.80 "HgN/A
7:20 PM63 °FPartly sunny.3 mph56%29.77 "HgN/A
6:20 PM63 °FPartly sunny.6 mph56%29.77 "HgN/A
5:20 PM64 °FPartly sunny.3 mph52%29.77 "HgN/A
4:20 PM64 °FBroken clouds.2 mph49%29.77 "HgN/A
3:20 PM64 °FBroken clouds.5 mph56%29.77 "HgN/A
2:20 PM63 °FBroken clouds.3 mph59%29.77 "HgN/A
1:20 PM63 °FBroken clouds.7 mph64%29.74 "HgN/A
Weather by CustomWeather, © 2014

See weather overviewHow to use our weather pages